Flag for U.S.A. Weather past 2 weeks in New Orleans, Louisiana, U.S.A.

Now
84 °F

Clear.


Feels Like: 90 °F
Forecast: 79 / 91 °F
Wind: 9 mph from Southwest

Location: Lakefront Airport

Current Time: Aug 3, 2015 at 9:29:09 PM

Latest Report: Aug 3, 2015 at 8:53 PM


Visibility: 10 mi

Pressure: 29.88 "Hg

Humidity: 70%

Dew point: 73 °F

Location of New OrleansLocation

Historic Weather in New Orleans — Graph

°F

New Orleans temperature yesterday

Maximum temperature yesterday: 95 °F (at 3:53 PM)
Minimum temperature yesterday: 79 °F (at 2:53 AM)
Average temperature yesterday: 87 °F

Past Weeks' High & Low Weather Summary

 TemperatureHumidityPressure
High98 °F (Jul 27, 2:53 PM)93% (Jul 29, 6:53 PM)30.06 "Hg (Jul 29, 6:53 PM)
Low77 °F (Jul 29, 8:53 PM)30% (Aug 2, 2:53 PM)29.83 "Hg (Aug 2, 6:53 PM)
Average88 °F63%29.93 "Hg
* Reported Jul 19 7:53 PM — Aug 3 7:53 PM, New Orleans, Weather by CustomWeather, © 2015

Note: Actual official high and low records may vary slightly from our data, if they occured in-between our weather recording intervals... More about our weather records

Advertising

New Orleans weather history for previous 24 hours

 ConditionsComfort  
Time TempWeatherWind HumidityBarometerVisibility
7:53 PM
Mon, Aug 3
85 °FSunny.12 mph68%29.87 "Hg10 mi
6:53 PM87 °FSunny.10 mph63%29.87 "Hg10 mi
5:53 PM88 °FSunny.12 mph59%29.88 "Hg10 mi
4:53 PM89 °FScattered clouds.14 mph59%29.89 "Hg10 mi
3:53 PM88 °FScattered clouds.20 mph61%29.90 "Hg10 mi
2:53 PM91 °FPassing clouds.13 mph57%29.90 "Hg10 mi
1:53 PM94 °FPassing clouds.13 mph38%29.91 "Hg10 mi
12:53 PM90 °FSunny.6 mph56%29.90 "Hg10 mi
11:53 AM88 °FSunny.5 mph61%29.92 "Hg10 mi
10:53 AM88 °FSunny.6 mph61%29.91 "Hg10 mi
9:53 AM86 °FSunny.6 mph67%29.90 "Hg10 mi
8:53 AM85 °FSunny.10 mph70%29.90 "Hg10 mi
7:53 AM84 °FSunny.10 mph72%29.90 "Hg10 mi
6:53 AM83 °FClear.13 mph77%29.88 "Hg10 mi
5:53 AM84 °FClear.14 mph77%29.86 "Hg10 mi
4:53 AM84 °FClear.14 mph77%29.85 "Hg10 mi
3:53 AM84 °FClear.12 mph80%29.84 "Hg10 mi
2:53 AM83 °FClear.8 mph79%29.85 "Hg10 mi
1:53 AM83 °FClear.10 mph79%29.86 "Hg10 mi
12:53 AM84 °FClear.9 mph77%29.86 "Hg10 mi
11:53 PM
Sun, Aug 2
84 °FClear.10 mph80%29.86 "Hg10 mi
10:53 PM85 °FClear.9 mph75%29.86 "Hg10 mi
9:53 PM85 °FClear.8 mph59%29.86 "Hg10 mi
Weather by CustomWeather, © 2015

See weather overviewHow to use our weather pages